Showing default

COSMOS 2503, 40420

Orbit data source: Space-Track

COSMOS 2503, 40420 is a payload satellite owned by VVKO VKS (CIS) in SSO that was launched on Fri, 27 Feb 2015 UTC via a SOYUZ-2-1A launch vehicle from the Plesetsk Missile And Space Complex (PKMTR). Payload-class satellites include a variety of spacecraft equipped with specific instruments for various scientific and technological missions. These include communications satellites like Starlink; space stations such as the ISS; scientific satellites like the Hubble; Earth observation satellites from companies like Planet Labs, Umbra, and HawkEye 360; GPS; miniature CubeSats for education and research; and military/defense satellites.

Loading next visibility...
Identifier
40420, 2015-009A
Orbit
SSO
Country
Flag of CISCIS
Related business
Manufacturer
Arsenal
Mission
Operational Defense Imaging
Bus & Motor
BARS, AOCS
Mass
3,700 kg wet, ~3,500 kg dry
Launch date (UTC)
2015-02-27 (11 years ago)
Launch vehicle
SOYUZ-2-1A
Launch site
Plesetsk Missile And Space Complex (PKMTR)
Object type
Payload
Rocket body
Debris
Shape & HBR
Cyl + 2 Pan, 5.0 m
Radar Cross Section
20.881 m², Large (>1 m²)

Expand to show TLE details & history
Last TLE update: 14 hours ago

TLE from 14 hours ago
0 COSMOS 2503
1 40420U 15009A   25340.88038562  .00003641  00000-0  25458-3 0  9990
2 40420  97.8604  29.1855 0016402 178.3095 181.8189 15.05854816589980
Epoch: 2025-12-06T21:07Z
TLE epoch observation values (Epoch: 2025-12-06T21:07:45.317Z)
Latitude
-0.00008°
Longitude
-3.65509°
Altitude
563.299 km
Speed
7.573 km/s
True Right ascension
01h 56m 44s
True Declination
0° 00' 00"
Sunlit
Object was in full shadow at epoch
Visualization orbit readout
Latitude
Unknown
Longitude
Unknown
Altitude
Unknown
Speed
Unknown
Apparent Right ascension
Unknown
Apparent Declination
Unknown
Sunlit
N/A
Visualization observer readout
Local Sidereal Time
08:54:22
Azimuth
Unknown
Elevation
Unknown
Doppler factor
Unknown
Orbital elements
Apogee altitude
557.244 km
Perigee altitude
534.531 km
Semi-major axis
6,924.025 km
Eccentricity
0.00164
Inclination
97.8604°
RAAN
29.1855°
Arg. of periapsis
178.3095°
True anomaly
181.81295°
Mean anomaly
181.8189°
Eccentric anomaly
181.81592°
Mean motion
3.76708 °/min
Orbital period
95.56 mins
BSTAR
0.00025458
Loading maneuver chart data...
Computing Atmospheric mass density...
Loading historical data...
Loading historical data...
Loading historical data...
Loading historical data...
Loading historical data...
Loading historical data...
Loading historical data...
Other satellites on launch #9 in the year 2015 (2015-02-27 UTC)

Documentation

Showing up to 5 results
|